Вернуться в каталог

STARLINK-35908

АктивенСвязьVLEO
NORAD 66639·PAYLOAD·🇺🇸 United States

Запущен Nov 23, 2025 с Vandenberg Space Force Base

Loading…

Ближайшие Пролёты (ближайшие 24 часа)

TLE

СвежийSource: CelesTrak SupGP

Эпоха: Sep 15, 2026, 03:30 UTC

1 66639C 25271Y   26258.14631944  .00060033  00000+0  17717-2 0  2586
2 66639  53.1583 338.8357 0001162 106.4904  76.6729 15.34395897    10

Отслеживайте STARLINK-35908 в реальном времени с AllMySat

Download on the App Store